Bangkok (Suvarnabhumi), Thailand

1:15 PM +07 on December 11, 2019 (GMT +0700)
Bangkok (Suvarnabhumi)

Weather History for VTBS - October, 2019

Change the Weather History Date:

Monday, October 7, 2019

  Actual Average (VTBU) Record (VTBU)
Temperature  
Mean Temperature 82 °F -  
Max Temperature 89 °F 90 °F 91 °F (2004)
Min Temperature 75 °F 74 °F 73 °F (1999)
Cooling Degree Days 17    
Growing Degree Days 32 (Base 50)    
Moisture  
Dew Point 75 °F    
Average Humidity 81    
Maximum Humidity 97    
Minimum Humidity 59    
Precipitation  
Precipitation 0.16 in 0.23 in - ()
Sea Level Pressure  
Sea Level Pressure 29.85 in    
Wind  
Wind Speed 5 mph ()    
Max Wind Speed 16 mph    
Max Gust Speed 15 mph    
Visibility 5.5 miles    
Events Rain , Thunderstorm    
Averages and records for this station are not official NWS values.
T = Trace of Precipitation, MM = Missing Value Source: Averaged Metar Reports

Daily Weather History Graph

Daily Weather History Graph

Search for Another Location

Airport or City:

Astronomy

Oct. 07, 2019 Rise Set
Actual Time 6:05 AM +07 6:02 PM +07
Civil Twilight 5:44 AM +07 6:23 PM +07
Nautical Twilight 5:19 AM +07 6:48 PM +07
Astronomical Twilight 4:55 AM +07 7:12 PM +07
Moon 1:52 PM +07 (10/7) 12:41 AM +07 (10/7)
Length of Visible Light 12h 39m
Length of Day
11h 56m
Waxing Gibbous, 65% of the Moon is Illuminated
Oct 7
Waxing Gibbous
Oct 14
Full
Oct 21
Last Quarter
Oct 28
New
Nov 4
First Quarter

Hourly Weather History & Observations

Time (+07) Temp. Heat Index Dew Point Humidity Pressure Visibility Wind Dir Wind Speed Gust Speed Precip Events Conditions
12:30 AM 78.8 °F - 75.2 °F 89% 29.86 in 5.6 mi NNE 5.8 mph - N/A   Mostly Cloudy
1:00 AM 78 °F - 75 °F 88% 29.85 in 4 mi Calm Calm - -   Mist
1:00 AM 78.8 °F - 75.2 °F 89% 29.86 in 5.6 mi ENE 6.9 mph - N/A   Scattered Clouds
1:30 AM 78.8 °F - 75.2 °F 89% 29.86 in 5.6 mi ENE 6.9 mph - N/A   Scattered Clouds
2:00 AM 78.8 °F - 75.2 °F 89% 29.83 in 5.6 mi ENE 8.1 mph - N/A   Partly Cloudy
2:30 AM 78.8 °F - 73.4 °F 83% 29.83 in 5.6 mi ENE 5.8 mph - N/A   Partly Cloudy
3:00 AM 78.8 °F - 73.4 °F 83% 29.83 in 6.2 mi East 3.5 mph - N/A   Partly Cloudy
3:30 AM 78.8 °F - 73.4 °F 83% 29.83 in 6.2 mi East 4.6 mph - N/A   Partly Cloudy
4:00 AM 77 °F - 76 °F 97% 29.81 in 2 mi ENE 2.3 mph - -   Mist
4:00 AM 77.0 °F - 73.4 °F 89% 29.83 in 6.2 mi NE 4.6 mph - N/A   Partly Cloudy
4:30 AM 75.2 °F - 73.4 °F 94% 29.83 in 6.2 mi NNE 4.6 mph - N/A   Partly Cloudy
5:00 AM 77.0 °F - 73.4 °F 89% 29.83 in 6.2 mi NE 5.8 mph - N/A   Partly Cloudy
5:30 AM 75.2 °F - 73.4 °F 94% 29.83 in 6.2 mi NNE 4.6 mph - N/A   Partly Cloudy
6:00 AM 77.0 °F - 73.4 °F 89% 29.83 in 6.2 mi NE 6.9 mph - N/A   Partly Cloudy
6:30 AM 77.0 °F - 73.4 °F 89% 29.86 in 6.2 mi NE 6.9 mph - N/A   Partly Cloudy
7:00 AM 77 °F - 76 °F 96% 29.86 in 2 mi East 2.3 mph - -   Mist
7:00 AM 78.8 °F - 73.4 °F 83% 29.86 in 6.2 mi NNE 5.8 mph - N/A   Partly Cloudy
7:30 AM 78.8 °F - 75.2 °F 89% 29.89 in 6.2 mi NNE 5.8 mph - N/A   Partly Cloudy
8:00 AM 80.6 °F 86.2 °F 75.2 °F 84% 29.89 in 6.2 mi NE 6.9 mph - N/A   Partly Cloudy
8:30 AM 80.6 °F 86.2 °F 75.2 °F 84% 29.89 in 6.2 mi ENE 6.9 mph - N/A   Scattered Clouds
9:00 AM 82.4 °F 89.5 °F 75.2 °F 79% 29.89 in 6.2 mi ENE 5.8 mph - N/A   Scattered Clouds
9:30 AM 84.2 °F 92.3 °F 75.2 °F 74% 29.89 in 6.2 mi Variable 5.8 mph - N/A   Scattered Clouds
10:00 AM 86 °F - 77 °F 68% 29.88 in 5 mi East 2.3 mph - -   Mist
10:00 AM 84.2 °F 92.3 °F 75.2 °F 74% 29.89 in 6.2 mi ESE 4.6 mph - N/A   Scattered Clouds
10:30 AM 86.0 °F 95.1 °F 75.2 °F 70% 29.89 in 6.2 mi ENE 3.5 mph - N/A   Scattered Clouds
11:00 AM 86.0 °F 95.1 °F 75.2 °F 70% 29.89 in 6.2 mi Variable 4.6 mph - N/A   Scattered Clouds
11:30 AM 89.6 °F 99.8 °F 75.2 °F 62% 29.86 in 6.2 mi Variable 3.5 mph - N/A   Scattered Clouds
12:00 PM 87.8 °F 97.6 °F 75.2 °F 66% 29.86 in 6.2 mi NE 5.8 mph - N/A   Scattered Clouds
12:30 PM 89.6 °F 98.2 °F 73.4 °F 59% 29.83 in 6.2 mi Variable 3.5 mph 15.0 mph N/A   Scattered Clouds
1:00 PM 86 °F - 80 °F 77% 29.81 in 5 mi WNW 5.8 mph - - Rain Light Rain
1:30 PM 89.6 °F 98.2 °F 73.4 °F 59% 29.80 in 6.2 mi ESE 5.8 mph - N/A   Scattered Clouds
2:00 PM 87.8 °F 95.6 °F 73.4 °F 62% 29.80 in 6.2 mi SW 9.2 mph - N/A   Scattered Clouds
2:30 PM 89.6 °F 98.2 °F 73.4 °F 59% 29.77 in 6.2 mi SW 6.9 mph - N/A   Scattered Clouds
3:00 PM 89.6 °F 99.8 °F 75.2 °F 62% 29.77 in 6.2 mi SW 9.2 mph - N/A   Scattered Clouds
3:30 PM 87.8 °F 97.6 °F 75.2 °F 66% 29.77 in 5.6 mi SSW 9.2 mph - N/A   Scattered Clouds
4:00 PM 83 °F - 76 °F 73% 29.79 in 4 mi ESE 2.3 mph - -   Mist
4:00 PM 87.8 °F 95.6 °F 73.4 °F 62% 29.77 in 5.6 mi NW 9.2 mph - N/A Thunderstorm Thunderstorm
4:30 PM 86.0 °F 91.8 °F 71.6 °F 62% 29.77 in 5.6 mi NW 10.4 mph - N/A Rain , Thunderstorm Light Thunderstorms and Rain
5:30 PM 82.4 °F 88.2 °F 73.4 °F 74% 29.80 in 5.6 mi East 8.1 mph - N/A Rain , Thunderstorm Light Thunderstorms and Rain
6:00 PM 78.8 °F - 75.2 °F 89% 29.80 in 4.3 mi ENE 16.1 mph - N/A Rain , Thunderstorm Light Thunderstorms and Rain
6:30 PM 78.8 °F - 75.2 °F 89% 29.83 in 5.0 mi NE 13.8 mph - N/A Rain , Thunderstorm Light Thunderstorms and Rain
7:00 PM 82 °F - 77 °F 80% 29.85 in 2 mi ENE 2.3 mph - -   Mist
7:00 PM 78.8 °F - 75.2 °F 89% 29.83 in 5.0 mi ENE 9.2 mph - N/A Rain Light Rain
8:00 PM 78.8 °F - 75.2 °F 89% 29.89 in 5.0 mi East 8.1 mph - N/A Rain Light Rain
8:30 PM 78.8 °F - 75.2 °F 89% 29.89 in 5.6 mi East 11.5 mph - N/A Rain Light Rain
9:00 PM 78.8 °F - 75.2 °F 89% 29.89 in 6.2 mi East 8.1 mph - N/A Rain Light Rain
9:30 PM 77.0 °F - 75.2 °F 94% 29.89 in 6.2 mi ENE 6.9 mph - N/A   Mostly Cloudy
10:00 PM 77.0 °F - 75.2 °F 94% 29.89 in 5.6 mi NE 5.8 mph - N/A   Scattered Clouds
10:30 PM 77.0 °F - 75.2 °F 94% 29.89 in 5.6 mi NE 4.6 mph - N/A   Scattered Clouds
11:00 PM 77.0 °F - 73.4 °F 89% 29.89 in 5.6 mi ENE 4.6 mph - N/A   Scattered Clouds
11:30 PM 77.0 °F - 73.4 °F 89% 29.89 in 5.6 mi East 3.5 mph - N/A   Scattered Clouds